Total_Precipitation_Accumulation
0.16 0.17 0.17 0.20 0.16 0.10 0.03 0.01 0.01 0.00 0.00 0.01 0.01 0.01 0.01 0.02 0.03 0.09 0.09 0.08 0.08 0.13 0.22 0.43 0.56 0.60 0.72 0.76 0.70 0.64 0.63 0.62 0.66 0.70 0.72 0.73 0.70 0.67 0.68 0.69 0.69 0.78 0.85 0.87 0.88 0.84 0.80 0.77 0.74
0.17 0.23 0.28 0.27 0.13 0.06 0.03 0.01 0.01 0.00 0.00 0.01 0.02 0.01 0.01 0.02 0.02 0.04 0.08 0.08 0.09 0.15 0.22 0.31 0.53 0.59 0.74 0.79 0.73 0.70 0.66 0.65 0.69 0.72 0.72 0.75 0.78 0.77 0.71 0.69 0.74 0.79 0.90 0.95 0.88 0.79 0.77 0.77 0.73
0.28 0.34 0.34 0.28 0.11 0.03 0.02 0.01 0.01 0.01 0.01 0.01 0.01 0.01 0.02 0.02 0.03 0.05 0.06 0.08 0.12 0.16 0.20 0.34 0.55 0.61 0.72 0.81 0.82 0.78 0.77 0.75 0.74 0.75 0.71 0.73 0.77 0.77 0.73 0.73 0.77 0.80 0.85 0.85 0.84 0.80 0.79 0.76 0.69
0.44 0.51 0.41 0.27 0.09 0.02 0.01 0.01 0.01 0.01 0.01 0.01 0.01 0.02 0.03 0.02 0.03 0.04 0.07 0.09 0.12 0.18 0.22 0.39 0.61 0.73 0.80 0.83 0.88 0.86 0.84 0.86 0.87 0.82 0.80 0.83 0.84 0.81 0.75 0.72 0.72 0.74 0.80 0.82 0.77 0.76 0.77 0.78 0.70
0.57 0.58 0.42 0.21 0.06 0.02 0.01 0.01 0.01 0.02 0.01 0.01 0.01 0.02 0.04 0.04 0.03 0.05 0.09 0.11 0.14 0.19 0.26 0.41 0.68 0.88 0.90 0.89 0.93 0.96 0.99 1.02 1.04 1.00 0.97 0.96 0.93 0.90 0.88 0.81 0.74 0.69 0.68 0.70 0.73 0.73 0.74 0.79 0.73
0.72 0.63 0.35 0.13 0.06 0.03 0.02 0.02 0.03 0.03 0.02 0.02 0.02 0.03 0.06 0.07 0.07 0.09 0.14 0.19 0.21 0.25 0.33 0.50 0.83 0.99 0.99 1.00 1.04 1.06 1.08 1.12 1.12 1.10 1.08 1.04 0.98 0.94 0.98 0.93 0.80 0.69 0.60 0.57 0.60 0.64 0.69 0.71 0.70
0.71 0.56 0.27 0.11 0.07 0.05 0.03 0.03 0.03 0.04 0.04 0.04 0.03 0.05 0.07 0.11 0.11 0.14 0.21 0.29 0.35 0.36 0.43 0.62 0.84 1.05 1.13 1.13 1.11 1.08 1.12 1.16 1.17 1.14 1.12 1.07 0.97 0.95 0.95 0.92 0.83 0.72 0.64 0.59 0.56 0.57 0.61 0.62 0.65
0.67 0.62 0.31 0.14 0.10 0.08 0.04 0.04 0.04 0.06 0.08 0.06 0.04 0.06 0.07 0.10 0.14 0.20 0.30 0.42 0.50 0.55 0.63 0.77 0.94 1.05 1.11 1.16 1.14 1.10 1.07 1.09 1.15 1.15 1.11 0.99 0.93 0.90 0.89 0.84 0.77 0.71 0.70 0.65 0.59 0.57 0.58 0.54 0.51
0.79 0.79 0.36 0.12 0.10 0.08 0.04 0.05 0.05 0.06 0.10 0.09 0.08 0.06 0.07 0.11 0.22 0.34 0.48 0.64 0.72 0.78 0.92 1.00 1.14 1.21 1.27 1.27 1.18 1.21 1.17 1.16 1.16 1.14 1.07 1.01 0.96 0.90 0.85 0.77 0.72 0.72 0.72 0.66 0.60 0.55 0.56 0.52 0.45
0.91 0.77 0.32 0.10 0.09 0.09 0.06 0.06 0.07 0.10 0.11 0.10 0.13 0.12 0.13 0.20 0.33 0.40 0.45 0.58 0.70 0.78 0.96 1.06 1.23 1.32 1.40 1.36 1.37 1.38 1.24 1.20 1.18 1.08 1.00 0.99 0.96 0.92 0.82 0.77 0.72 0.72 0.73 0.74 0.71 0.63 0.56 0.48 0.42
0.71 0.52 0.23 0.11 0.10 0.13 0.12 0.10 0.09 0.13 0.14 0.10 0.13 0.17 0.19 0.30 0.39 0.44 0.45 0.54 0.64 0.78 0.97 1.16 1.30 1.48 1.53 1.50 1.49 1.47 1.39 1.29 1.26 1.15 1.13 1.13 1.13 1.05 0.98 0.89 0.81 0.80 0.79 0.84 0.83 0.83 0.70 0.62 0.56
0.54 0.34 0.22 0.15 0.13 0.16 0.17 0.15 0.13 0.13 0.10 0.07 0.10 0.16 0.25 0.32 0.37 0.44 0.51 0.61 0.76 0.93 1.05 1.28 1.51 1.66 1.72 1.71 1.62 1.49 1.39 1.30 1.30 1.25 1.25 1.28 1.24 1.13 1.03 0.96 0.86 0.82 0.82 0.83 0.87 0.89 0.82 0.75 0.68
0.51 0.31 0.23 0.20 0.18 0.18 0.19 0.18 0.15 0.14 0.09 0.11 0.16 0.18 0.26 0.30 0.38 0.49 0.63 0.74 0.85 0.95 1.09 1.36 1.60 1.75 1.83 1.95 1.91 1.65 1.49 1.35 1.31 1.34 1.27 1.21 1.20 1.15 1.06 0.96 0.86 0.78 0.74 0.75 0.76 0.76 0.77 0.76 0.72
0.49 0.36 0.27 0.25 0.26 0.22 0.21 0.18 0.17 0.13 0.13 0.20 0.25 0.24 0.26 0.28 0.36 0.54 0.69 0.80 0.88 0.98 1.13 1.38 1.65 1.85 1.94 1.92 1.99 1.91 1.76 1.58 1.48 1.37 1.28 1.20 1.15 1.13 1.04 0.93 0.81 0.71 0.64 0.59 0.59 0.57 0.60 0.65 0.64
0.53 0.53 0.46 0.35 0.31 0.28 0.29 0.26 0.14 0.10 0.17 0.26 0.32 0.34 0.34 0.33 0.36 0.49 0.64 0.75 0.83 0.99 1.27 1.50 1.77 2.01 2.06 1.99 1.95 2.01 2.04 1.91 1.77 1.57 1.41 1.31 1.21 1.14 1.11 1.05 0.96 0.86 0.76 0.67 0.63 0.57 0.54 0.55 0.57
0.83 0.88 0.76 0.45 0.36 0.35 0.48 0.36 0.12 0.12 0.23 0.29 0.35 0.40 0.41 0.41 0.38 0.41 0.58 0.75 0.91 1.06 1.26 1.60 1.86 2.06 2.06 2.10 2.13 2.07 2.10 2.11 1.92 1.74 1.62 1.45 1.31 1.21 1.19 1.14 1.02 0.98 0.97 0.87 0.80 0.72 0.67 0.59 0.54
1.27 1.11 0.72 0.46 0.40 0.44 0.52 0.35 0.15 0.18 0.27 0.33 0.37 0.41 0.47 0.51 0.48 0.47 0.54 0.68 0.90 1.04 1.18 1.46 1.79 1.94 2.02 2.10 2.27 2.32 2.30 2.22 2.06 1.86 1.70 1.60 1.47 1.29 1.18 1.16 1.09 1.02 0.99 0.94 0.89 0.84 0.80 0.75 0.67
1.10 0.80 0.59 0.45 0.40 0.48 0.48 0.32 0.20 0.25 0.32 0.35 0.36 0.42 0.50 0.51 0.45 0.47 0.56 0.69 0.90 1.08 1.23 1.41 1.75 1.97 2.14 2.24 2.29 2.40 2.44 2.36 2.23 2.09 1.87 1.78 1.69 1.54 1.35 1.22 1.17 1.16 1.10 1.01 0.90 0.84 0.84 0.82 0.77
0.77 0.67 0.59 0.42 0.35 0.48 0.45 0.30 0.23 0.25 0.32 0.35 0.37 0.44 0.48 0.49 0.51 0.56 0.66 0.80 0.96 1.10 1.23 1.38 1.67 1.84 2.06 2.12 2.06 1.98 2.07 2.11 2.13 2.15 2.10 2.00 1.92 1.82 1.65 1.45 1.33 1.31 1.23 1.14 1.00 0.90 0.85 0.83 0.80
0.88 0.84 0.63 0.47 0.39 0.50 0.45 0.31 0.23 0.24 0.30 0.33 0.37 0.43 0.47 0.52 0.59 0.63 0.75 0.91 0.97 1.02 1.15 1.32 1.56 1.73 1.85 1.84 1.80 1.78 1.80 1.88 1.95 2.03 2.12 2.16 2.09 1.96 1.83 1.67 1.52 1.41 1.36 1.27 1.15 1.04 0.94 0.86 0.79
0.95 0.82 0.65 0.59 0.58 0.63 0.62 0.53 0.30 0.28 0.30 0.32 0.38 0.42 0.44 0.49 0.53 0.55 0.67 0.91 1.02 1.02 1.11 1.24 1.45 1.61 1.80 1.97 2.03 2.01 2.10 2.11 2.00 1.92 1.95 2.04 2.04 1.95 1.82 1.73 1.66 1.59 1.50 1.38 1.30 1.23 1.14 1.05 0.92
0.97 0.62 0.61 0.67 0.95 1.12 0.90 1.01 0.48 0.33 0.35 0.32 0.37 0.45 0.42 0.47 0.52 0.52 0.60 0.83 1.00 1.00 1.14 1.30 1.48 1.69 1.81 2.01 2.10 1.93 1.82 1.83 1.72 1.69 1.68 1.82 1.96 1.94 1.85 1.81 1.78 1.67 1.56 1.43 1.35 1.36 1.35 1.33 1.27
0.71 0.57 0.70 0.84 1.09 1.28 0.97 1.06 0.59 0.35 0.44 0.41 0.40 0.48 0.45 0.47 0.52 0.51 0.56 0.75 0.96 1.06 1.16 1.36 1.50 1.73 1.89 1.97 2.01 1.93 1.78 1.65 1.69 1.81 1.85 1.81 1.83 1.93 1.90 1.80 1.77 1.69 1.57 1.50 1.42 1.33 1.35 1.37 1.38
0.70 0.91 1.18 1.32 1.79 1.96 0.91 0.86 0.68 0.54 0.57 0.51 0.48 0.53 0.51 0.51 0.55 0.58 0.61 0.75 0.91 1.03 1.17 1.32 1.56 1.71 1.93 2.02 1.98 1.82 1.69 1.61 1.62 1.68 1.87 1.96 1.93 1.95 1.96 1.87 1.81 1.71 1.55 1.46 1.48 1.42 1.35 1.33 1.34
1.15 1.73 2.69 3.00 2.94 1.79 0.54 0.58 0.70 0.58 0.53 0.55 0.56 0.56 0.55 0.57 0.61 0.61 0.62 0.71 0.80 0.94 1.11 1.25 1.44 1.71 1.90 2.03 1.96 1.76 1.62 1.56 1.55 1.56 1.65 1.77 1.87 1.93 1.94 1.91 1.80 1.69 1.59 1.46 1.45 1.47 1.44 1.39 1.43
1.22 1.42 1.96 2.10 1.56 0.77 0.43 0.53 0.58 0.51 0.45 0.46 0.49 0.53 0.48 0.57 0.66 0.65 0.62 0.69 0.77 0.89 1.04 1.22 1.36 1.62 1.86 1.98 1.96 1.84 1.63 1.55 1.54 1.57 1.57 1.60 1.57 1.62 1.77 1.92 1.96 1.78 1.59 1.51 1.47 1.45 1.42 1.43 1.44
1.14 1.16 0.99 1.34 0.97 0.65 0.57 0.49 0.43 0.37 0.35 0.40 0.47 0.54 0.55 0.60 0.70 0.72 0.69 0.74 0.77 0.88 1.01 1.19 1.33 1.51 1.76 1.96 1.97 1.93 1.75 1.61 1.55 1.55 1.56 1.62 1.58 1.52 1.59 1.76 1.91 2.00 1.93 1.75 1.63 1.55 1.46 1.47 1.51
1.00 1.09 1.32 1.82 1.52 0.89 0.53 0.43 0.51 0.45 0.40 0.41 0.47 0.57 0.58 0.59 0.68 0.74 0.74 0.77 0.81 0.93 1.04 1.17 1.32 1.44 1.62 1.82 1.94 1.93 1.94 1.77 1.67 1.63 1.57 1.55 1.60 1.58 1.52 1.54 1.65 1.76 1.85 1.88 1.82 1.74 1.59 1.53 1.49
1.09 1.37 1.65 1.69 1.34 1.12 0.75 0.57 0.55 0.47 0.41 0.41 0.43 0.53 0.58 0.63 0.70 0.78 0.81 0.79 0.83 0.98 1.09 1.15 1.25 1.42 1.59 1.67 1.76 1.83 1.97 1.86 1.78 1.75 1.65 1.55 1.52 1.59 1.58 1.54 1.60 1.66 1.68 1.72 1.79 1.77 1.72 1.70 1.65
0.93 1.17 1.39 1.72 1.33 0.88 0.85 0.68 0.46 0.39 0.36 0.35 0.37 0.47 0.55 0.60 0.68 0.71 0.76 0.79 0.79 0.90 1.08 1.18 1.25 1.30 1.49 1.63 1.68 1.75 1.89 1.94 1.83 1.78 1.73 1.58 1.47 1.48 1.54 1.56 1.57 1.64 1.69 1.69 1.75 1.74 1.71 1.78 1.76